Skip Page Navigation
NASA JPL Caltech
NASA Logo - Jet Propulsion Laboratory + View the NASA Portal
+ Center for Near-Earth Object Studies
JPL Home Earth Solar System Stars & Galaxies Technology
JPL Solar System Dynamics
BODIES ORBITS EPHEMERIDES TOOLS PHYSICAL DATA DISCOVERY FAQ SITE MAP
IMPORTANT: The SSD Announcement email list is now available. Major changes are coming in the near future, including possible hostname and/or URL changes. To be notified of such changes, subscribe to this email list.

Please visit this page for more details.


JPL Small-Body Database Browser
Search: [ help ]  
27326 Jimobrien (2000 CC37)
Classification: Main-belt Asteroid          SPK-ID: 2027326
Ephemeris | Orbit Diagram | Orbital Elements | Mission Design | Physical Parameters | Discovery Circumstances | Close-Approach Data ]

[ show orbit diagram ]
Orbital Elements at Epoch 2458600.5 (2019-Apr-27.0) TDB
Reference: JPL 22 (heliocentric ecliptic J2000)
 Element Value Uncertainty (1-sigma)   Units 
e .1676495807796222 3.6271e-08  
a 2.668664417114986 1.1129e-08 au
q 2.221263946344164 9.572e-08 au
i 6.030588905868494 3.8442e-06 deg
node 164.1293801407573 3.6721e-05 deg
peri 87.04456672685785 3.8704e-05 deg
M 72.04039187469802 1.1091e-05 deg
tp 2458281.850721029699
(2018-Jun-12.35072103)
4.9072e-05 TDB
period 1592.353087540575
4.36
9.9611e-06
2.727e-08
d
yr
n .226080511173579 1.4143e-09 deg/d
Q 3.116064887885808 1.2995e-08 au
  Orbit Determination Parameters
   # obs. used (total)      1252  
   data-arc span      10493 days (28.73 yr)  
   first obs. used      1991-03-08  
   last obs. used      2019-11-29  
   planetary ephem.      DE431  
   SB-pert. ephem.      SB431-N16  
   condition code      0  
   norm. resid. RMS      .53195  
   source      ORB  
   producer      Otto Matic  
   solution date      2019-Dec-14 01:36:55  

Additional Information
 Earth MOID = 1.21705 au 
 Jupiter MOID = 1.94919 au 
 T_jup = 3.354 
[ show covariance matrix ]

Ephemeris | Orbit Diagram | Orbital Elements | Mission Design | Physical Parameters | Discovery Circumstances | Close-Approach Data ]

Physical Parameter Table
Parameter Symbol Value Units Sigma Reference Notes
absolute magnitude H 14.5   n/a MPO358885  
diameter diameter 3.967 km 0.145 urn:nasa:pds:neowise_diameters_albedos::2.0[mainbelt] (http://adsabs.harvard.edu/abs/2011ApJ...741...68M)  
geometric albedo albedo 0.235   0.046 urn:nasa:pds:neowise_diameters_albedos::2.0[mainbelt] (http://adsabs.harvard.edu/abs/2011ApJ...741...68M)  

27326 Jimobrien           Discovered 2000 Feb. 2 by the Lincoln Laboratory Near-Earth Asteroid Research Team at Socorro.
James O'Brien mentored a finalist in the 2011 Intel Science Talent Search, a science competition for high-school seniors. He teaches at the Venture School, San Ramon, California, U.S.A.
NOTE: some special characters may not display properly (any characters within {} are an attempt to place the proper accent above a character)
Reference: 20110319/MPCPages.arcLast Updated: 2011-03-23

[ show close-approach data ]
Alternate Designations
 2000 CC37 = 1993 UM4 
Ephemeris | Orbit Diagram | Orbital Elements | Mission Design | Physical Parameters | Discovery Circumstances | Close-Approach Data ]
ABOUT SSD CREDITS/AWARDS PRIVACY/COPYRIGHT GLOSSARY LINKS
FirstGov 2020-Jan-19 00:24 UT
(server date/time)  
NASA Home Page
Site Manager:   Ryan S. Park
Webmaster  Alan B. Chamberlin